Über Swarm A
Group: 3 satellites
Beschreibung wird geladen...
Live-Position
3D-Globus wird geladen...
Nächste Überflüge
Höhenverlauf
Altitude vs Time
uPlot chart will show altitude changes over time
Zweizeiliger Elementsatz
1 39452U 13067B 26061.03329259 .00012571 00000-0 23536-3 0 9996
2 39452 87.3295 95.9956 0003028 93.3747 266.7859 15.48545287689654
Epoch: 2. März 2026 •
Age: 26 hours
Aktueller Status
Höhe 423.1 km
Geschwindigkeit 7.66 km/s
Subsatellitenpunkt 9.43°N,
79.07°E
Startdatum 22. Nov. 2013
Alter 12.2 years
Typ other
Technische Details
Klassifizierung Payload
Masse 473.00 kg
Trockenmasse 367.00 kg
Gesamtmasse 473.00 kg
Länge 5.00 m
Durchmesser 1.50 m
Spannweite 9.30 m
Form Half hex prism+ boom
Hersteller EASF
Bus-Typ Flexbus
Phasenstatus In Orbit
Besitzer/Staat ESA/I-ESA
Große Konstellationen
Loading constellations...